Time,TemperatureF,DewpointF,PressureIn,WindDirection,WindDirectionDegrees,WindSpeedMPH,WindSpeedGustMPH,Humidity,HourlyPrecipIn,Conditions,Clouds,dailyrainin,SoftwareType,DateUTC
2013-03-18 00:00:00,33.1,31.6,29.83,SSE,150,11.0,11.0,94,0.04,,,0.07,Wunderground v.1.15,2013-03-18 05:00:00,
2013-03-18 00:05:00,33.2,31.7,29.84,SE,146,9.0,18.0,94,0.00,,,0.00,Wunderground v.1.15,2013-03-18 05:05:00,
2013-03-18 00:10:00,33.1,31.6,29.80,SE,139,10.0,18.0,94,0.00,,,0.00,Wunderground v.1.15,2013-03-18 05:10:00,
2013-03-18 00:15:00,33.1,31.8,29.80,SE,138,14.0,18.0,95,0.00,,,0.01,Wunderground v.1.15,2013-03-18 05:15:00,
2013-03-18 00:20:00,33.2,31.9,29.78,SE,135,16.0,16.0,95,0.00,,,0.01,Wunderground v.1.15,2013-03-18 05:20:00,
2013-03-18 00:25:00,33.3,32.0,29.77,SE,144,16.0,18.0,95,0.00,,,0.01,Wunderground v.1.15,2013-03-18 05:25:00,
2013-03-18 00:35:00,33.5,32.2,29.81,South,170,10.0,18.0,95,0.00,,,0.01,Wunderground v.1.15,2013-03-18 05:35:00,
2013-03-18 00:40:00,33.5,32.2,29.80,SSE,156,8.0,18.0,95,0.00,,,0.01,Wunderground v.1.15,2013-03-18 05:40:00,
2013-03-18 00:45:00,33.6,32.3,29.79,SSE,147,10.0,18.0,95,0.00,,,0.01,Wunderground v.1.15,2013-03-18 05:45:00,
2013-03-18 00:50:00,33.8,32.5,29.81,SSE,163,13.0,13.0,95,0.00,,,0.01,Wunderground v.1.15,2013-03-18 05:50:00,
2013-03-18 00:55:00,33.9,32.6,29.82,SSE,163,11.0,18.0,95,0.00,,,0.01,Wunderground v.1.15,2013-03-18 05:55:00,
2013-03-18 01:00:00,34.0,32.7,29.83,South,173,8.0,18.0,95,0.00,,,0.01,Wunderground v.1.15,2013-03-18 06:00:00,
2013-03-18 01:10:00,34.1,32.8,29.84,SW,220,8.0,18.0,95,0.00,,,0.01,Wunderground v.1.15,2013-03-18 06:10:00,
2013-03-18 01:15:00,34.2,32.9,29.86,SW,225,9.0,18.0,95,0.00,,,0.01,Wunderground v.1.15,2013-03-18 06:15:00,
2013-03-18 01:20:00,34.3,33.0,29.85,SSW,207,10.0,10.0,95,0.00,,,0.01,Wunderground v.1.15,2013-03-18 06:20:00,
2013-03-18 01:25:00,34.3,33.0,29.86,SSW,208,9.0,18.0,95,0.00,,,0.01,Wunderground v.1.15,2013-03-18 06:25:00,
2013-03-18 01:30:00,34.3,33.0,29.86,SSW,196,8.0,18.0,95,0.00,,,0.01,Wunderground v.1.15,2013-03-18 06:30:00,
2013-03-18 01:40:00,34.6,33.3,29.86,SSW,192,10.0,18.0,95,0.00,,,0.01,Wunderground v.1.15,2013-03-18 06:40:00,
2013-03-18 01:45:00,34.6,33.3,29.88,SW,230,9.0,18.0,95,0.00,,,0.01,Wunderground v.1.15,2013-03-18 06:45:00,
2013-03-18 01:50:00,34.7,33.4,29.88,WSW,242,9.0,9.0,95,0.00,,,0.01,Wunderground v.1.15,2013-03-18 06:50:00,
2013-03-18 01:55:00,34.8,33.5,29.89,WSW,239,11.0,13.0,95,0.00,,,0.01,Wunderground v.1.15,2013-03-18 06:55:00,
2013-03-18 02:00:00,34.8,33.5,29.90,WSW,258,11.0,11.0,95,0.00,,,0.01,Wunderground v.1.15,2013-03-18 07:00:00,
2013-03-18 02:05:00,34.8,33.5,29.90,West,266,10.0,18.0,95,0.00,,,0.01,Wunderground v.1.15,2013-03-18 07:05:00,
2013-03-18 02:15:00,34.8,33.5,29.90,West,268,10.0,18.0,95,0.00,,,0.01,Wunderground v.1.15,2013-03-18 07:15:00,
2013-03-18 02:20:00,34.8,33.5,29.90,West,262,11.0,18.0,95,0.00,,,0.01,Wunderground v.1.15,2013-03-18 07:20:00,
2013-03-18 02:25:00,34.9,33.6,29.91,West,277,12.0,18.0,95,0.00,,,0.01,Wunderground v.1.15,2013-03-18 07:25:00,
2013-03-18 02:30:00,35.0,33.7,29.91,West,279,11.0,11.0,95,0.00,,,0.01,Wunderground v.1.15,2013-03-18 07:30:00,
2013-03-18 02:35:00,35.0,33.7,29.90,WNW,283,11.0,18.0,95,0.00,,,0.01,Wunderground v.1.15,2013-03-18 07:35:00,
2013-03-18 02:45:00,34.8,33.5,29.90,West,271,13.0,13.0,95,0.00,,,0.01,Wunderground v.1.15,2013-03-18 07:45:00,
2013-03-18 02:50:00,34.8,33.2,29.90,West,276,14.0,14.0,94,0.00,,,0.01,Wunderground v.1.15,2013-03-18 07:50:00,
2013-03-18 02:55:00,34.7,33.2,29.90,West,267,13.0,18.0,94,0.00,,,0.01,Wunderground v.1.15,2013-03-18 07:55:00,
2013-03-18 03:00:00,34.7,33.2,29.90,West,265,13.0,18.0,94,0.00,,,0.01,Wunderground v.1.15,2013-03-18 08:00:00,
2013-03-18 03:05:00,34.7,33.2,29.90,West,267,14.0,18.0,94,0.00,,,0.01,Wunderground v.1.15,2013-03-18 08:05:00,
2013-03-18 03:10:00,34.7,33.2,29.89,West,265,14.0,14.0,94,0.00,,,0.01,Wunderground v.1.15,2013-03-18 08:10:00,
2013-03-18 03:20:00,34.8,33.2,29.89,West,261,14.0,18.0,94,0.00,,,0.01,Wunderground v.1.15,2013-03-18 08:20:00,
2013-03-18 03:25:00,34.8,33.2,29.89,West,273,13.0,18.0,94,0.00,,,0.01,Wunderground v.1.15,2013-03-18 08:25:00,
2013-03-18 03:30:00,34.8,33.0,29.89,West,259,13.0,18.0,93,0.00,,,0.01,Wunderground v.1.15,2013-03-18 08:30:00,
2013-03-18 03:35:00,34.7,32.9,29.89,West,268,13.0,18.0,93,0.00,,,0.01,Wunderground v.1.15,2013-03-18 08:35:00,
2013-03-18 03:40:00,34.6,32.8,29.89,West,269,12.0,18.0,93,0.00,,,0.01,Wunderground v.1.15,2013-03-18 08:40:00,
2013-03-18 03:45:00,34.4,32.6,29.89,West,278,12.0,18.0,93,0.00,,,0.01,Wunderground v.1.15,2013-03-18 08:45:00,
2013-03-18 03:50:00,34.4,32.3,29.89,West,276,13.0,13.0,92,0.00,,,0.01,Wunderground v.1.15,2013-03-18 08:50:00,
2013-03-18 03:55:00,34.2,32.1,29.89,West,269,12.0,18.0,92,0.00,,,0.01,Wunderground v.1.15,2013-03-18 08:55:00,
2013-03-18 04:00:00,34.0,31.9,29.89,West,271,11.0,11.0,92,0.00,,,0.01,Wunderground v.1.15,2013-03-18 09:00:00,
2013-03-18 04:05:00,33.8,31.7,29.89,West,275,10.0,12.0,92,0.00,,,0.01,Wunderground v.1.15,2013-03-18 09:05:00,
2013-03-18 04:10:00,33.7,31.6,29.89,West,277,9.0,9.0,92,0.00,,,0.01,Wunderground v.1.15,2013-03-18 09:10:00,
2013-03-18 04:15:00,33.7,31.6,29.90,WNW,291,10.0,11.0,92,0.00,,,0.01,Wunderground v.1.15,2013-03-18 09:15:00,
2013-03-18 04:25:00,33.6,31.5,29.90,West,277,10.0,18.0,92,0.00,,,0.01,Wunderground v.1.15,2013-03-18 09:25:00,
2013-03-18 04:30:00,33.6,31.5,29.90,WNW,288,10.0,18.0,92,0.00,,,0.01,Wunderground v.1.15,2013-03-18 09:30:00,
2013-03-18 04:35:00,33.5,31.4,29.90,WNW,284,10.0,18.0,92,0.00,,,0.01,Wunderground v.1.15,2013-03-18 09:35:00,
2013-03-18 04:40:00,33.6,31.3,29.90,WNW,291,10.0,18.0,91,0.00,,,0.01,Wunderground v.1.15,2013-03-18 09:40:00,
2013-03-18 04:45:00,33.7,31.4,29.89,WNW,296,9.0,18.0,91,0.00,,,0.01,Wunderground v.1.15,2013-03-18 09:45:00,
2013-03-18 04:55:00,33.8,30.9,29.90,WNW,294,10.0,18.0,89,0.00,,,0.01,Wunderground v.1.15,2013-03-18 09:55:00,
2013-03-18 05:00:00,33.8,30.6,29.90,WNW,290,10.0,18.0,88,0.00,,,0.01,Wunderground v.1.15,2013-03-18 10:00:00,
2013-03-18 05:05:00,33.7,30.5,29.90,NW,307,10.0,18.0,88,0.00,,,0.01,Wunderground v.1.15,2013-03-18 10:05:00,
2013-03-18 05:10:00,33.7,30.2,29.90,West,278,10.0,18.0,87,0.00,,,0.01,Wunderground v.1.15,2013-03-18 10:10:00,
2013-03-18 05:15:00,33.8,30.1,29.90,NW,305,11.0,18.0,86,0.00,,,0.01,Wunderground v.1.15,2013-03-18 10:15:00,
2013-03-18 05:20:00,33.9,29.6,29.90,WNW,302,13.0,13.0,84,0.00,,,0.01,Wunderground v.1.15,2013-03-18 10:20:00,
2013-03-18 05:30:00,33.8,29.2,29.90,WNW,297,13.0,18.0,83,0.00,,,0.01,Wunderground v.1.15,2013-03-18 10:30:00,
2013-03-18 05:35:00,33.9,28.7,29.90,WNW,299,14.0,18.0,81,0.00,,,0.01,Wunderground v.1.15,2013-03-18 10:35:00,
2013-03-18 05:40:00,34.0,28.5,29.91,WNW,296,14.0,14.0,80,0.00,,,0.01,Wunderground v.1.15,2013-03-18 10:40:00,
2013-03-18 05:45:00,34.0,28.2,29.91,NW,311,14.0,18.0,79,0.00,,,0.01,Wunderground v.1.15,2013-03-18 10:45:00,
2013-03-18 05:50:00,33.8,28.3,29.92,NW,310,14.0,18.0,80,0.00,,,0.01,Wunderground v.1.15,2013-03-18 10:50:00,
2013-03-18 05:55:00,33.6,28.4,29.92,WNW,298,12.0,18.0,81,0.00,,,0.01,Wunderground v.1.15,2013-03-18 10:55:00,
2013-03-18 06:00:00,33.2,28.3,29.92,WNW,292,10.0,10.0,82,0.00,,,0.01,Wunderground v.1.15,2013-03-18 11:00:00,
2013-03-18 06:05:00,33.3,28.1,29.92,NW,312,11.0,11.0,81,0.00,,,0.01,Wunderground v.1.15,2013-03-18 11:05:00,
2013-03-18 06:10:00,33.4,27.9,29.92,WNW,303,12.0,18.0,80,0.00,,,0.01,Wunderground v.1.15,2013-03-18 11:10:00,
2013-03-18 06:15:00,33.4,27.6,29.92,WNW,300,12.0,18.0,79,0.00,,,0.01,Wunderground v.1.15,2013-03-18 11:15:00,
2013-03-18 06:20:00,33.2,27.4,29.93,WNW,296,12.0,18.0,79,0.00,,,0.01,Wunderground v.1.15,2013-03-18 11:20:00,
2013-03-18 06:25:00,32.9,27.1,29.93,WNW,285,11.0,18.0,79,0.00,,,0.01,Wunderground v.1.15,2013-03-18 11:25:00,
2013-03-18 06:35:00,32.5,27.0,29.93,NW,313,10.0,18.0,80,0.00,,,0.01,Wunderground v.1.15,2013-03-18 11:35:00,
2013-03-18 06:40:00,32.4,26.9,29.93,WNW,297,10.0,18.0,80,0.00,,,0.01,Wunderground v.1.15,2013-03-18 11:40:00,
2013-03-18 06:45:00,32.3,26.8,29.94,WNW,296,10.0,18.0,80,0.00,,,0.01,Wunderground v.1.15,2013-03-18 11:45:00,
2013-03-18 06:50:00,32.2,26.4,29.94,WNW,289,10.0,10.0,79,0.00,,,0.01,Wunderground v.1.15,2013-03-18 11:50:00,
2013-03-18 06:55:00,31.9,26.4,29.95,WNW,298,10.0,18.0,80,0.00,,,0.01,Wunderground v.1.15,2013-03-18 11:55:00,
2013-03-18 07:00:00,31.7,26.2,29.95,WNW,300,9.0,18.0,80,0.00,,,0.01,Wunderground v.1.15,2013-03-18 12:00:00,
2013-03-18 07:10:00,31.5,26.0,29.95,NW,306,10.0,18.0,80,0.00,,,0.01,Wunderground v.1.15,2013-03-18 12:10:00,
2013-03-18 07:15:00,31.5,25.7,29.95,WNW,296,11.0,18.0,79,0.00,,,0.01,Wunderground v.1.15,2013-03-18 12:15:00,
2013-03-18 07:20:00,31.6,25.2,29.96,WNW,302,12.0,18.0,77,0.00,,,0.01,Wunderground v.1.15,2013-03-18 12:20:00,
2013-03-18 07:25:00,31.7,25.0,29.96,NW,304,13.0,18.0,76,0.00,,,0.01,Wunderground v.1.15,2013-03-18 12:25:00,
2013-03-18 07:30:00,31.5,25.1,29.96,NW,309,13.0,13.0,77,0.00,,,0.01,Wunderground v.1.15,2013-03-18 12:30:00,
2013-03-18 07:35:00,31.3,24.9,29.96,NW,313,11.0,18.0,77,0.00,,,0.01,Wunderground v.1.15,2013-03-18 12:35:00,
2013-03-18 07:40:00,31.2,24.8,29.96,WNW,298,10.0,10.0,77,0.00,,,0.01,Wunderground v.1.15,2013-03-18 12:40:00,
2013-03-18 07:45:00,31.0,24.6,29.96,NW,309,10.0,18.0,77,0.00,,,0.01,Wunderground v.1.15,2013-03-18 12:45:00,
2013-03-18 07:50:00,31.0,24.6,29.96,NW,315,10.0,18.0,77,0.00,,,0.01,Wunderground v.1.15,2013-03-18 12:50:00,
2013-03-18 07:55:00,31.1,24.4,29.96,NW,307,10.0,18.0,76,0.00,,,0.01,Wunderground v.1.15,2013-03-18 12:55:00,
2013-03-18 08:00:00,31.0,24.3,29.96,WNW,301,10.0,10.0,76,0.00,,,0.01,Wunderground v.1.15,2013-03-18 13:00:00,
2013-03-18 08:10:00,31.0,24.6,29.96,WNW,297,9.0,9.0,77,0.00,,,0.01,Wunderground v.1.15,2013-03-18 13:10:00,
2013-03-18 08:15:00,30.9,24.5,29.97,WNW,298,9.0,18.0,77,0.00,,,0.01,Wunderground v.1.15,2013-03-18 13:15:00,
2013-03-18 08:20:00,31.0,24.6,29.97,NW,306,9.0,18.0,77,0.00,,,0.01,Wunderground v.1.15,2013-03-18 13:20:00,
2013-03-18 08:25:00,31.1,24.4,29.96,WNW,300,9.0,18.0,76,0.00,,,0.01,Wunderground v.1.15,2013-03-18 13:25:00,
2013-03-18 08:30:00,31.2,24.8,29.97,WNW,300,9.0,18.0,77,0.00,,,0.01,Wunderground v.1.15,2013-03-18 13:30:00,
2013-03-18 08:40:00,31.4,25.0,29.98,NW,304,9.0,18.0,77,0.00,,,0.01,Wunderground v.1.15,2013-03-18 13:40:00,
2013-03-18 08:45:00,31.5,25.1,29.98,NW,314,9.0,18.0,77,0.00,,,0.01,Wunderground v.1.15,2013-03-18 13:45:00,
2013-03-18 08:50:00,31.7,25.3,29.98,NW,311,8.0,18.0,77,0.00,,,0.01,Wunderground v.1.15,2013-03-18 13:50:00,
2013-03-18 08:55:00,31.9,25.2,29.98,NW,310,9.0,18.0,76,0.00,,,0.01,Wunderground v.1.15,2013-03-18 13:55:00,
2013-03-18 09:00:00,32.1,25.4,29.98,NW,310,10.0,18.0,76,0.00,,,0.01,Wunderground v.1.15,2013-03-18 14:00:00,
2013-03-18 09:05:00,32.2,25.5,29.98,WNW,291,9.0,18.0,76,0.00,,,0.01,Wunderground v.1.15,2013-03-18 14:05:00,
2013-03-18 09:15:00,32.4,25.4,29.98,NW,306,9.0,18.0,75,0.00,,,0.01,Wunderground v.1.15,2013-03-18 14:15:00,
2013-03-18 09:20:00,32.5,24.8,29.98,WNW,289,11.0,11.0,73,0.00,,,0.01,Wunderground v.1.15,2013-03-18 14:20:00,
2013-03-18 09:25:00,32.6,24.6,29.98,NW,317,11.0,12.0,72,0.00,,,0.01,Wunderground v.1.15,2013-03-18 14:25:00,
2013-03-18 09:30:00,32.8,25.4,29.99,WNW,297,12.0,12.0,74,0.00,,,0.01,Wunderground v.1.15,2013-03-18 14:30:00,
2013-03-18 09:35:00,32.8,24.8,29.99,WNW,301,13.0,13.0,72,0.00,,,0.01,Wunderground v.1.15,2013-03-18 14:35:00,
2013-03-18 09:45:00,33.1,25.7,29.99,WNW,292,11.0,18.0,74,0.00,,,0.01,Wunderground v.1.15,2013-03-18 14:45:00,
2013-03-18 09:50:00,33.2,26.5,30.00,WNW,292,11.0,18.0,76,0.00,,,0.01,Wunderground v.1.15,2013-03-18 14:50:00,
2013-03-18 09:55:00,33.4,26.3,30.00,West,281,10.0,18.0,75,0.00,,,0.01,Wunderground v.1.15,2013-03-18 14:55:00,
2013-03-18 10:00:00,33.7,26.6,30.00,WNW,294,10.0,18.0,75,0.00,,,0.01,Wunderground v.1.15,2013-03-18 15:00:00,
2013-03-18 10:05:00,33.7,25.6,30.00,NW,309,11.0,18.0,72,0.00,,,0.01,Wunderground v.1.15,2013-03-18 15:05:00,
2013-03-18 10:10:00,33.7,26.3,30.00,NW,309,11.0,18.0,74,0.00,,,0.01,Wunderground v.1.15,2013-03-18 15:10:00,
2013-03-18 10:20:00,33.6,25.2,30.01,NW,309,13.0,18.0,71,0.00,,,0.01,Wunderground v.1.15,2013-03-18 15:20:00,
2013-03-18 10:25:00,33.2,24.5,30.01,NW,304,15.0,18.0,70,0.00,,,0.01,Wunderground v.1.15,2013-03-18 15:25:00,
2013-03-18 10:30:00,33.3,24.9,30.01,NW,307,15.0,15.0,71,0.00,,,0.01,Wunderground v.1.15,2013-03-18 15:30:00,
2013-03-18 10:35:00,33.8,25.4,30.01,NW,319,14.0,19.0,71,0.00,,,0.01,Wunderground v.1.15,2013-03-18 15:35:00,
2013-03-18 10:40:00,33.6,24.9,30.01,NW,312,14.0,14.0,70,0.00,,,0.01,Wunderground v.1.15,2013-03-18 15:40:00,
2013-03-18 10:50:00,33.7,25.3,30.01,WNW,295,15.0,18.0,71,0.00,,,0.01,Wunderground v.1.15,2013-03-18 15:50:00,
2013-03-18 10:55:00,34.0,25.6,30.01,NW,312,15.0,18.0,71,0.00,,,0.01,Wunderground v.1.15,2013-03-18 15:55:00,
2013-03-18 11:00:00,34.1,25.7,30.01,NW,310,14.0,18.0,71,0.00,,,0.01,Wunderground v.1.15,2013-03-18 16:00:00,
2013-03-18 11:05:00,33.9,25.1,30.01,NW,306,15.0,18.0,70,0.00,,,0.01,Wunderground v.1.15,2013-03-18 16:05:00,
2013-03-18 11:10:00,34.4,25.6,30.01,WNW,282,16.0,16.0,70,0.00,,,0.01,Wunderground v.1.15,2013-03-18 16:10:00,
2013-03-18 11:15:00,34.6,26.2,30.02,NW,305,15.0,18.0,71,0.00,,,0.01,Wunderground v.1.15,2013-03-18 16:15:00,
2013-03-18 11:20:00,35.1,26.3,30.02,NW,313,15.0,18.0,70,0.00,,,0.01,Wunderground v.1.15,2013-03-18 16:20:00,
2013-03-18 11:25:00,35.0,26.5,30.02,WNW,302,15.0,18.0,71,0.00,,,0.01,Wunderground v.1.15,2013-03-18 16:25:00,
2013-03-18 11:30:00,35.2,26.4,30.03,NW,322,16.0,16.0,70,0.00,,,0.01,Wunderground v.1.15,2013-03-18 16:30:00,
2013-03-18 11:35:00,35.3,26.5,30.03,NW,313,16.0,18.0,70,0.00,,,0.01,Wunderground v.1.15,2013-03-18 16:35:00,
2013-03-18 11:40:00,35.8,27.3,30.03,WNW,298,15.0,18.0,71,0.00,,,0.01,Wunderground v.1.15,2013-03-18 16:40:00,
2013-03-18 11:45:00,35.9,26.4,30.03,WNW,286,15.0,18.0,68,0.00,,,0.01,Wunderground v.1.15,2013-03-18 16:45:00,
2013-03-18 11:55:00,36.5,27.3,30.03,WNW,286,16.0,18.0,69,0.00,,,0.01,Wunderground v.1.15,2013-03-18 16:55:00,
2013-03-18 12:00:00,37.3,28.8,30.03,WNW,294,15.0,15.0,71,0.00,,,0.01,Wunderground v.1.15,2013-03-18 17:00:00,
2013-03-18 12:05:00,37.3,27.7,30.02,West,276,15.0,20.0,68,0.00,,,0.01,Wunderground v.1.15,2013-03-18 17:05:00,
2013-03-18 12:10:00,37.5,28.2,30.03,NW,313,16.0,16.0,69,0.00,,,0.01,Wunderground v.1.15,2013-03-18 17:10:00,
2013-03-18 12:15:00,37.7,29.1,30.03,NW,323,16.0,18.0,71,0.00,,,0.01,Wunderground v.1.15,2013-03-18 17:15:00,
2013-03-18 12:25:00,37.9,28.3,30.03,NW,306,18.0,21.0,68,0.00,,,0.01,Wunderground v.1.15,2013-03-18 17:25:00,
2013-03-18 12:30:00,37.9,27.2,30.03,WNW,290,21.0,24.0,65,0.00,,,0.02,Wunderground v.1.15,2013-03-18 17:30:00,
2013-03-18 12:35:00,37.9,27.9,30.03,NW,306,22.0,24.0,67,0.00,,,0.02,Wunderground v.1.15,2013-03-18 17:35:00,
2013-03-18 12:40:00,38.0,27.6,30.03,NW,305,20.0,20.0,66,0.00,,,0.02,Wunderground v.1.15,2013-03-18 17:40:00,
2013-03-18 12:45:00,38.4,28.4,30.03,WNW,284,19.0,20.0,67,0.00,,,0.02,Wunderground v.1.15,2013-03-18 17:45:00,
2013-03-18 12:50:00,38.3,27.6,30.03,WNW,292,19.0,22.0,65,0.00,,,0.02,Wunderground v.1.15,2013-03-18 17:50:00,
2013-03-18 13:00:00,38.6,27.8,30.04,NW,311,19.0,20.0,65,0.00,,,0.02,Wunderground v.1.15,2013-03-18 18:00:00,
2013-03-18 13:05:00,38.6,28.6,30.04,NW,304,18.0,23.0,67,0.00,,,0.02,Wunderground v.1.15,2013-03-18 18:05:00,
2013-03-18 13:10:00,38.5,27.7,30.04,WNW,286,19.0,20.0,65,0.00,,,0.02,Wunderground v.1.15,2013-03-18 18:10:00,
2013-03-18 13:15:00,39.1,29.1,30.04,NW,305,19.0,20.0,67,0.00,,,0.02,Wunderground v.1.15,2013-03-18 18:15:00,
2013-03-18 13:20:00,39.0,27.8,30.04,NW,305,18.0,20.0,64,0.00,,,0.02,Wunderground v.1.15,2013-03-18 18:20:00,
2013-03-18 13:30:00,39.1,27.6,30.04,WNW,303,18.0,21.0,63,0.00,,,0.02,Wunderground v.1.15,2013-03-18 18:30:00,
2013-03-18 13:35:00,38.9,26.2,30.04,WNW,300,19.0,28.0,60,0.00,,,0.02,Wunderground v.1.15,2013-03-18 18:35:00,
2013-03-18 13:40:00,39.1,26.4,30.04,NW,323,19.0,19.0,60,0.00,,,0.02,Wunderground v.1.15,2013-03-18 18:40:00,
2013-03-18 13:45:00,40.0,27.2,30.04,WNW,289,18.0,19.0,60,0.00,,,0.02,Wunderground v.1.15,2013-03-18 18:45:00,
2013-03-18 13:50:00,39.8,26.2,30.04,NW,311,19.0,23.0,58,0.00,,,0.02,Wunderground v.1.15,2013-03-18 18:50:00,
2013-03-18 13:55:00,39.5,25.5,30.04,WNW,294,21.0,23.0,57,0.00,,,0.02,Wunderground v.1.15,2013-03-18 18:55:00,
2013-03-18 14:05:00,39.6,24.7,30.05,WNW,298,22.0,33.0,55,0.00,,,0.02,Wunderground v.1.15,2013-03-18 19:05:00,
2013-03-18 14:10:00,39.1,23.8,30.04,WNW,297,23.0,23.0,54,0.00,,,0.02,Wunderground v.1.15,2013-03-18 19:10:00,
2013-03-18 14:15:00,39.3,24.9,30.04,NW,323,23.0,25.0,56,0.00,,,0.02,Wunderground v.1.15,2013-03-18 19:15:00,
2013-03-18 14:20:00,39.9,24.1,30.04,WNW,302,22.0,22.0,53,0.00,,,0.02,Wunderground v.1.15,2013-03-18 19:20:00,
2013-03-18 14:25:00,40.0,23.3,30.04,NW,307,23.0,23.0,51,0.00,,,0.02,Wunderground v.1.15,2013-03-18 19:25:00,
2013-03-18 14:30:00,39.9,22.3,30.04,NW,309,24.0,24.0,49,0.00,,,0.02,Wunderground v.1.15,2013-03-18 19:30:00,
2013-03-18 14:35:00,40.2,24.0,30.04,WNW,292,22.0,24.0,52,0.00,,,0.02,Wunderground v.1.15,2013-03-18 19:35:00,
2013-03-18 14:40:00,40.2,24.0,30.04,WNW,294,20.0,30.0,52,0.00,,,0.02,Wunderground v.1.15,2013-03-18 19:40:00,
2013-03-18 14:45:00,40.5,22.3,30.04,NW,309,21.0,30.0,48,0.00,,,0.02,Wunderground v.1.15,2013-03-18 19:45:00,
2013-03-18 14:50:00,40.7,23.0,30.03,WNW,286,21.0,25.0,49,0.00,,,0.02,Wunderground v.1.15,2013-03-18 19:50:00,
2013-03-18 14:55:00,41.1,22.9,30.03,WNW,302,20.0,25.0,48,0.00,,,0.02,Wunderground v.1.15,2013-03-18 19:55:00,
2013-03-18 15:05:00,41.0,22.3,30.03,WNW,296,21.0,29.0,47,0.00,,,0.02,Wunderground v.1.15,2013-03-18 20:05:00,
2013-03-18 15:10:00,41.3,21.5,30.03,WNW,283,21.0,27.0,45,0.00,,,0.02,Wunderground v.1.15,2013-03-18 20:10:00,
2013-03-18 15:15:00,41.6,21.3,30.02,NW,306,22.0,27.0,44,0.00,,,0.02,Wunderground v.1.15,2013-03-18 20:15:00,
2013-03-18 15:20:00,41.3,19.9,30.03,WNW,300,23.0,23.0,42,0.00,,,0.02,Wunderground v.1.15,2013-03-18 20:20:00,
2013-03-18 15:25:00,41.9,20.4,30.03,WNW,299,23.0,26.0,42,0.00,,,0.02,Wunderground v.1.15,2013-03-18 20:25:00,
2013-03-18 15:30:00,41.4,19.4,30.03,NW,319,22.0,22.0,41,0.00,,,0.02,Wunderground v.1.15,2013-03-18 20:30:00,
2013-03-18 15:40:00,42.5,21.0,30.03,NW,307,20.0,23.0,42,0.00,,,0.02,Wunderground v.1.15,2013-03-18 20:40:00,
2013-03-18 15:45:00,42.2,18.4,30.03,NW,307,23.0,24.0,38,0.00,,,0.02,Wunderground v.1.15,2013-03-18 20:45:00,
2013-03-18 15:50:00,42.1,20.1,30.03,WNW,298,23.0,30.0,41,0.00,,,0.02,Wunderground v.1.15,2013-03-18 20:50:00,
2013-03-18 15:55:00,42.3,19.7,30.04,WNW,290,22.0,30.0,40,0.00,,,0.02,Wunderground v.1.15,2013-03-18 20:55:00,
2013-03-18 16:00:00,41.6,17.8,30.03,NW,306,22.0,22.0,38,0.00,,,0.02,Wunderground v.1.15,2013-03-18 21:00:00,
2013-03-18 16:10:00,41.5,18.4,30.04,NW,320,22.0,22.0,39,0.00,,,0.02,Wunderground v.1.15,2013-03-18 21:10:00,
2013-03-18 16:15:00,41.6,19.6,30.04,West,277,21.0,22.0,41,0.00,,,0.02,Wunderground v.1.15,2013-03-18 21:15:00,
2013-03-18 16:20:00,42.1,18.9,30.04,NW,306,19.0,19.0,39,0.00,,,0.02,Wunderground v.1.15,2013-03-18 21:20:00,
2013-03-18 16:25:00,41.7,18.5,30.04,NW,313,19.0,28.0,39,0.00,,,0.02,Wunderground v.1.15,2013-03-18 21:25:00,
2013-03-18 16:30:00,41.3,18.8,30.05,NW,315,21.0,24.0,40,0.00,,,0.02,Wunderground v.1.15,2013-03-18 21:30:00,
2013-03-18 16:35:00,41.5,18.4,30.05,NW,315,22.0,24.0,39,0.00,,,0.02,Wunderground v.1.15,2013-03-18 21:35:00,
2013-03-18 16:45:00,41.5,17.1,30.05,NW,325,21.0,25.0,37,0.00,,,0.02,Wunderground v.1.15,2013-03-18 21:45:00,
2013-03-18 16:50:00,41.4,17.7,30.05,WNW,294,21.0,21.0,38,0.00,,,0.02,Wunderground v.1.15,2013-03-18 21:50:00,
2013-03-18 16:55:00,41.9,17.5,30.05,WNW,303,20.0,21.0,37,0.00,,,0.02,Wunderground v.1.15,2013-03-18 21:55:00,
2013-03-18 17:00:00,41.9,17.5,30.05,NW,323,19.0,19.0,37,0.00,,,0.02,Wunderground v.1.15,2013-03-18 22:00:00,
2013-03-18 17:05:00,42.1,17.7,30.05,WNW,295,19.0,19.0,37,0.00,,,0.02,Wunderground v.1.15,2013-03-18 22:05:00,
2013-03-18 17:15:00,41.5,15.8,30.05,NW,317,20.0,25.0,35,0.00,,,0.02,Wunderground v.1.15,2013-03-18 22:15:00,
2013-03-18 17:20:00,41.5,17.1,30.05,NW,313,21.0,25.0,37,0.00,,,0.02,Wunderground v.1.15,2013-03-18 22:20:00,
2013-03-18 17:25:00,41.5,17.1,30.05,WNW,303,22.0,25.0,37,0.00,,,0.02,Wunderground v.1.15,2013-03-18 22:25:00,
2013-03-18 17:30:00,41.9,16.2,30.05,NW,304,20.0,20.0,35,0.00,,,0.02,Wunderground v.1.15,2013-03-18 22:30:00,
2013-03-18 17:35:00,42.0,16.3,30.06,NW,306,18.0,20.0,35,0.00,,,0.02,Wunderground v.1.15,2013-03-18 22:35:00,
2013-03-18 17:40:00,41.6,14.6,30.06,WNW,298,18.0,18.0,33,0.00,,,0.02,Wunderground v.1.15,2013-03-18 22:40:00,
2013-03-18 17:50:00,41.5,15.2,30.06,WNW,300,19.0,19.0,34,0.00,,,0.02,Wunderground v.1.15,2013-03-18 22:50:00,
2013-03-18 17:55:00,41.7,16.0,30.06,WNW,288,18.0,19.0,35,0.00,,,0.02,Wunderground v.1.15,2013-03-18 22:55:00,
2013-03-18 18:00:00,41.8,16.1,30.06,NW,311,16.0,18.0,35,0.00,,,0.02,Wunderground v.1.15,2013-03-18 23:00:00,
2013-03-18 18:05:00,41.4,14.4,30.06,NW,304,17.0,18.0,33,0.00,,,0.02,Wunderground v.1.15,2013-03-18 23:05:00,
2013-03-18 18:10:00,41.4,15.8,30.06,NW,311,17.0,17.0,35,0.00,,,0.02,Wunderground v.1.15,2013-03-18 23:10:00,
2013-03-18 18:15:00,41.2,14.9,30.07,WNW,296,16.0,19.0,34,0.00,,,0.02,Wunderground v.1.15,2013-03-18 23:15:00,
2013-03-18 18:25:00,41.2,14.9,30.07,West,278,16.0,18.0,34,0.00,,,0.02,Wunderground v.1.15,2013-03-18 23:25:00,
2013-03-18 18:30:00,41.1,16.1,30.07,NW,314,15.0,18.0,36,0.00,,,0.02,Wunderground v.1.15,2013-03-18 23:30:00,
2013-03-18 18:35:00,40.9,14.6,30.07,NW,326,17.0,18.0,34,0.00,,,0.02,Wunderground v.1.15,2013-03-18 23:35:00,
2013-03-18 18:40:00,40.7,15.1,30.07,NW,310,17.0,17.0,35,0.00,,,0.02,Wunderground v.1.15,2013-03-18 23:40:00,
2013-03-18 18:45:00,40.6,14.4,30.07,NW,326,16.0,18.0,34,0.00,,,0.02,Wunderground v.1.15,2013-03-18 23:45:00,
2013-03-18 18:50:00,40.3,14.1,30.08,NW,306,17.0,20.0,34,0.00,,,0.02,Wunderground v.1.15,2013-03-18 23:50:00,
2013-03-18 18:55:00,40.2,15.3,30.08,NW,316,17.0,20.0,36,0.00,,,0.02,Wunderground v.1.15,2013-03-18 23:55:00,
2013-03-18 19:00:00,40.0,15.2,30.08,NW,308,15.0,15.0,36,0.00,,,0.02,Wunderground v.1.15,2013-03-19 00:00:00,
2013-03-18 19:05:00,39.8,15.0,30.08,NW,315,14.0,16.0,36,0.00,,,0.02,Wunderground v.1.15,2013-03-19 00:05:00,
2013-03-18 19:10:00,39.6,16.0,30.09,NW,311,14.0,14.0,38,0.00,,,0.02,Wunderground v.1.15,2013-03-19 00:10:00,
2013-03-18 19:15:00,39.3,15.8,30.08,NW,321,12.0,18.0,38,0.00,,,0.02,Wunderground v.1.15,2013-03-19 00:15:00,
2013-03-18 19:25:00,38.6,15.1,30.08,NW,325,11.0,18.0,38,0.00,,,0.02,Wunderground v.1.15,2013-03-19 00:25:00,
2013-03-18 19:30:00,38.1,15.3,30.09,NW,323,9.0,9.0,39,0.00,,,0.02,Wunderground v.1.15,2013-03-19 00:30:00,
2013-03-18 19:35:00,37.6,15.4,30.09,NNW,347,7.0,18.0,40,0.00,,,0.02,Wunderground v.1.15,2013-03-19 00:35:00,
2013-03-18 19:40:00,36.9,15.9,30.09,NNW,334,5.0,5.0,42,0.00,,,0.02,Wunderground v.1.15,2013-03-19 00:40:00,
2013-03-18 19:45:00,36.1,16.3,30.09,NNW,335,4.0,18.0,44,0.00,,,0.02,Wunderground v.1.15,2013-03-19 00:45:00,
2013-03-18 19:55:00,34.8,16.1,30.09,NNW,338,4.0,18.0,46,0.00,,,0.02,Wunderground v.1.15,2013-03-19 00:55:00,
2013-03-18 20:00:00,34.4,16.2,30.09,NNW,338,4.0,4.0,47,0.00,,,0.02,Wunderground v.1.15,2013-03-19 01:00:00,
2013-03-18 20:05:00,34.1,15.9,30.09,NNW,338,4.0,5.0,47,0.00,,,0.02,Wunderground v.1.15,2013-03-19 01:05:00,
2013-03-18 20:10:00,33.8,15.2,30.10,NNW,338,4.0,18.0,46,0.00,,,0.02,Wunderground v.1.15,2013-03-19 01:10:00,
2013-03-18 20:15:00,33.7,15.1,30.10,NNW,338,4.0,18.0,46,0.00,,,0.02,Wunderground v.1.15,2013-03-19 01:15:00,
2013-03-18 20:20:00,33.6,15.0,30.10,NNW,336,4.0,18.0,46,0.00,,,0.02,Wunderground v.1.15,2013-03-19 01:20:00,
2013-03-18 20:25:00,33.3,15.2,30.10,NNW,336,4.0,18.0,47,0.00,,,0.02,Wunderground v.1.15,2013-03-19 01:25:00,
2013-03-18 20:30:00,32.9,15.3,30.10,NNW,336,3.0,18.0,48,0.00,,,0.02,Wunderground v.1.15,2013-03-19 01:30:00,
2013-03-18 20:35:00,32.5,15.4,30.10,NNW,336,2.0,18.0,49,0.00,,,0.02,Wunderground v.1.15,2013-03-19 01:35:00,
2013-03-18 20:40:00,32.0,15.4,30.10,NNW,336,2.0,18.0,50,0.00,,,0.02,Wunderground v.1.15,2013-03-19 01:40:00,
2013-03-18 20:45:00,31.5,15.9,30.10,NNW,336,2.0,18.0,52,0.00,,,0.02,Wunderground v.1.15,2013-03-19 01:45:00,
2013-03-18 20:50:00,31.3,16.1,30.11,NNW,336,2.0,18.0,53,0.00,,,0.02,Wunderground v.1.15,2013-03-19 01:50:00,
2013-03-18 21:00:00,31.1,15.9,30.11,NNW,336,3.0,3.0,53,0.00,,,0.02,Wunderground v.1.15,2013-03-19 02:00:00,
2013-03-18 21:05:00,31.1,15.9,30.11,NNW,336,2.0,18.0,53,0.00,,,0.02,Wunderground v.1.15,2013-03-19 02:05:00,
2013-03-18 21:10:00,31.0,15.8,30.11,NNW,336,2.0,18.0,53,0.00,,,0.02,Wunderground v.1.15,2013-03-19 02:10:00,
2013-03-18 21:15:00,31.0,15.8,30.11,NNW,336,3.0,18.0,53,0.00,,,0.02,Wunderground v.1.15,2013-03-19 02:15:00,
2013-03-18 21:20:00,31.0,15.8,30.12,NNW,336,3.0,3.0,53,0.00,,,0.02,Wunderground v.1.15,2013-03-19 02:20:00,
2013-03-18 21:25:00,31.0,16.7,30.12,NNW,336,3.0,4.0,55,0.00,,,0.02,Wunderground v.1.15,2013-03-19 02:25:00,
2013-03-18 21:35:00,30.6,17.6,30.12,NNW,336,2.0,3.0,58,0.00,,,0.02,Wunderground v.1.15,2013-03-19 02:35:00,
2013-03-18 21:40:00,30.5,17.5,30.12,NNW,339,3.0,3.0,58,0.00,,,0.02,Wunderground v.1.15,2013-03-19 02:40:00,
2013-03-18 21:45:00,30.7,18.1,30.12,NNW,341,3.0,4.0,59,0.00,,,0.02,Wunderground v.1.15,2013-03-19 02:45:00,
2013-03-18 21:50:00,31.3,17.8,30.13,North,350,3.0,18.0,57,0.00,,,0.02,Wunderground v.1.15,2013-03-19 02:50:00,
2013-03-18 21:55:00,32.0,17.2,30.13,North,350,4.0,18.0,54,0.00,,,0.02,Wunderground v.1.15,2013-03-19 02:55:00,
2013-03-18 22:05:00,32.5,17.2,30.13,North,355,3.0,18.0,53,0.00,,,0.02,Wunderground v.1.15,2013-03-19 03:05:00,
2013-03-18 22:10:00,32.5,17.2,30.13,North,355,3.0,18.0,53,0.00,,,0.02,Wunderground v.1.15,2013-03-19 03:10:00,
2013-03-18 22:15:00,32.4,17.6,30.14,North,355,3.0,18.0,54,0.00,,,0.02,Wunderground v.1.15,2013-03-19 03:15:00,
2013-03-18 22:20:00,32.4,17.6,30.15,North,355,2.0,18.0,54,0.00,,,0.02,Wunderground v.1.15,2013-03-19 03:20:00,
2013-03-18 22:25:00,32.3,17.5,30.15,North,355,1.0,18.0,54,0.00,,,0.02,Wunderground v.1.15,2013-03-19 03:25:00,
2013-03-18 22:30:00,32.2,17.4,30.15,North,355,1.0,18.0,54,0.00,,,0.02,Wunderground v.1.15,2013-03-19 03:30:00,
2013-03-18 22:35:00,32.2,17.4,30.15,North,355,1.0,18.0,54,0.00,,,0.02,Wunderground v.1.15,2013-03-19 03:35:00,
2013-03-18 22:40:00,32.1,17.7,30.15,North,355,2.0,18.0,55,0.00,,,0.02,Wunderground v.1.15,2013-03-19 03:40:00,
2013-03-18 22:45:00,32.0,18.1,30.15,North,355,3.0,18.0,56,0.00,,,0.02,Wunderground v.1.15,2013-03-19 03:45:00,
2013-03-18 22:50:00,31.9,18.4,30.16,North,355,2.0,2.0,57,0.00,,,0.02,Wunderground v.1.15,2013-03-19 03:50:00,
2013-03-18 22:55:00,31.8,18.3,30.16,North,355,1.0,18.0,57,0.00,,,0.02,Wunderground v.1.15,2013-03-19 03:55:00,
2013-03-18 23:00:00,31.7,18.6,30.17,North,355,0.0,18.0,58,0.00,,,0.02,Wunderground v.1.15,2013-03-19 04:00:00,
2013-03-18 23:05:00,31.7,17.8,30.17,North,355,0.0,18.0,56,0.00,,,0.02,Wunderground v.1.15,2013-03-19 04:05:00,
2013-03-18 23:10:00,31.7,17.4,30.16,North,355,1.0,18.0,55,0.00,,,0.02,Wunderground v.1.15,2013-03-19 04:10:00,
2013-03-18 23:15:00,31.7,17.8,30.16,North,355,1.0,18.0,56,0.00,,,0.02,Wunderground v.1.15,2013-03-19 04:15:00,
2013-03-18 23:20:00,31.7,18.2,30.17,North,355,1.0,1.0,57,0.00,,,0.02,Wunderground v.1.15,2013-03-19 04:20:00,
2013-03-18 23:25:00,31.6,18.1,30.17,North,355,1.0,18.0,57,0.00,,,0.02,Wunderground v.1.15,2013-03-19 04:25:00,
2013-03-18 23:30:00,31.5,19.2,30.17,North,355,0.0,18.0,60,0.00,,,0.02,Wunderground v.1.15,2013-03-19 04:30:00,
2013-03-18 23:35:00,31.5,18.4,30.17,North,355,0.0,18.0,58,0.00,,,0.02,Wunderground v.1.15,2013-03-19 04:35:00,
2013-03-18 23:40:00,31.5,17.6,30.17,North,355,0.0,18.0,56,0.00,,,0.02,Wunderground v.1.15,2013-03-19 04:40:00,
2013-03-18 23:45:00,31.6,17.7,30.17,North,355,0.0,18.0,56,0.00,,,0.02,Wunderground v.1.15,2013-03-19 04:45:00,
2013-03-18 23:50:00,31.6,18.1,30.17,North,355,1.0,1.0,57,0.00,,,0.02,Wunderground v.1.15,2013-03-19 04:50:00,
2013-03-18 23:55:00,31.6,17.7,30.17,North,355,1.0,18.0,56,0.00,,,0.02,Wunderground v.1.15,2013-03-19 04:55:00,